[[{"header":{"parameterUnit":"m.s-1","parameterCategory":1,"la1":30.2992,"la2":30.254,"lo1":-89.0895,"lo2":-89.0443,"dy":0.0025,"dx":0.0025,"nx":19,"ny":19,"refTime":"2026-03-29T21:00:00:Z","depth":0,"parameterNumber":2,"parameterNumberName":"U-component_of_WINDS"},"data":[0,0,0,-4.4428,-4.4432,-4.4608,-4.4609,-4.4834,-4.4836,0,0,0,0,0,0,0,0,0,0,0,-4.4377,-4.4378,-4.4428,-4.4432,-4.4608,-4.4609,-4.4833,-4.4836,0,0,0,0,0,0,0,0,0,0,0,-4.4376,-4.4378,-4.438,-4.4433,-4.4608,-4.4609,-4.4833,-4.47,0,0,0,0,0,0,0,0,0,0,-4.4529,-4.4482,-4.4377,-4.438,-4.4434,-4.4608,-4.4609,-4.4694,-4.4708,-4.4754,0,-4.4796,0,-4.4819,-4.4851,-4.4852,0,0,0,-4.4432,-4.447,-4.4517,-4.438,-4.4436,-4.4607,-4.4529,-4.4702,-4.4718,-4.4774,-4.4799,-4.4807,-4.4823,-4.4852,-4.4853,-4.512,-4.5122,0,0,-4.4422,-4.4408,-4.4505,-4.4528,-4.4501,-4.4523,-4.4534,-4.4712,-4.4738,-4.48,-4.4812,-4.4827,-4.4854,-4.4855,-4.5119,-4.5121,0,0,0,-4.4395,-4.4402,-4.4444,-4.4519,-4.455,-4.4528,-4.4541,-4.473,-4.4745,-4.4815,-4.4829,-4.4855,-4.4858,-4.5118,-4.512,-4.5168,0,0,0,-4.4389,-4.4386,-4.444,-4.4433,-4.4547,-4.4643,-4.4555,-4.4733,-4.4753,-4.4828,-4.4855,-4.486,-4.5117,-4.5119,-4.5163,-4.5192,0,0,0,-4.4365,-4.4383,-4.4408,-4.4432,-4.4508,-4.464,-4.4665,-4.4738,-4.4763,-4.4852,-4.4861,-4.5116,-4.5118,-4.516,-4.5185,-4.5256,0,0,0,-4.4335,-4.4449,-4.4409,-4.4542,-4.4506,-4.4669,-4.4664,-4.4787,-4.4869,-4.4856,-4.5117,-4.512,-4.5158,-4.5182,-4.5252,-4.5311,-4.5335,0,0,-4.4471,-4.4465,-4.4544,-4.4514,-4.468,-4.4643,-4.4817,-4.4906,-4.4927,-4.5055,-4.5061,-4.5165,-4.5185,-4.5255,-4.5481,-4.5499,0,0,0,-4.4582,-4.4639,-4.4686,-4.4764,-4.4835,-4.4898,-4.4961,-4.4994,-4.5103,-4.499,-4.5211,-4.5224,-4.5266,-4.5294,-4.5311,-4.5346,-4.5133,-4.5133,-4.5133,-4.4752,-4.4774,-4.4906,-4.4949,-4.5025,-4.509,-4.5153,-4.5208,-4.5208,-4.526,-4.5297,-4.5431,-4.5464,-4.5476,-4.5513,-4.5332,-4.5333,-4.5333,-4.5333,-4.4951,-4.5033,-4.5031,-4.5157,-4.518,-4.5286,-4.5354,-4.535,-4.5452,-4.5405,-4.5443,-4.5386,-4.5497,-4.553,-4.5337,-4.5336,-4.5336,-4.5335,-4.5335,-4.5062,-4.5105,-4.5144,-4.5259,-4.5345,-4.5385,-4.5483,-4.5501,-4.5518,-4.5556,-4.5595,-4.5594,-4.5593,-4.5574,-4.5575,-4.5575,-4.5575,-4.5576,-4.5576,-4.516,-4.5203,-4.5283,-4.5369,-4.5421,-4.5492,-4.5559,-4.5611,-4.5673,-4.5678,-4.5678,-4.5671,-4.5505,-4.546,-4.5583,-4.5582,-4.5581,-4.558,-4.558,-4.5348,-4.5308,-4.5432,-4.5485,-4.5586,-4.567,-4.5692,-4.5797,-4.5842,-4.589,-4.5876,-4.5751,-4.5746,-4.5733,-4.5696,-4.5873,-4.5873,-4.5873,-4.5873,-4.5439,-4.5439,-4.5569,-4.5652,-4.5735,-4.5768,-4.5906,-4.596,-4.601,-4.6039,-4.6017,-4.5972,-4.5958,-4.596,-4.5943,-4.5909,-4.6135,-4.6135,-4.6136,-4.5554,-4.5563,-4.5677,-4.5726,-4.5807,-4.5876,-4.6006,-4.6101,-4.6149,-4.6147,-4.6062,-4.6051,-4.5978,-4.5953,-4.5944,-4.5917,-4.5855,0,0]},{"header":{"parameterUnit":"m.s-1","parameterCategory":1,"la1":30.2992,"la2":30.254,"lo1":-89.0895,"lo2":-89.0443,"dy":0.0025,"dx":0.0025,"nx":19,"ny":19,"refTime":"2026-03-29T21:00:00:Z","depth":0,"parameterNumber":3,"parameterNumberName":"V-component_of_WINDS"},"data":[0,0,0,2.9225,2.9227,2.932,2.9321,2.9439,2.944,0,0,0,0,0,0,0,0,0,0,0,2.9198,2.9199,2.9225,2.9227,2.932,2.9321,2.9439,2.944,0,0,0,0,0,0,0,0,0,0,0,2.9197,2.9198,2.92,2.9227,2.932,2.9321,2.9438,2.9368,0,0,0,0,0,0,0,0,0,0,2.9277,2.9253,2.9198,2.92,2.9228,2.932,2.9321,2.9365,2.9372,2.9397,0,2.942,0,2.9432,2.9448,2.9448,0,0,0,2.9226,2.9247,2.9272,2.92,2.9229,2.932,2.9278,2.9369,2.9378,2.9407,2.9421,2.9426,2.9434,2.9449,2.9449,2.9597,2.9598,0,0,2.9221,2.9214,2.9266,2.9278,2.9265,2.9275,2.9281,2.9374,2.9389,2.9422,2.9428,2.9436,2.945,2.945,2.9596,2.9597,0,0,0,2.9207,2.9211,2.9233,2.9273,2.929,2.9278,2.9284,2.9385,2.9393,2.943,2.9437,2.945,2.9452,2.9596,2.9597,2.9628,0,0,0,2.9204,2.9203,2.9231,2.9228,2.9288,2.9339,2.9293,2.9386,2.9397,2.9437,2.945,2.9453,2.9595,2.9596,2.9626,2.9644,0,0,0,2.9191,2.9201,2.9215,2.9228,2.9268,2.9337,2.9351,2.9389,2.9402,2.9448,2.9453,2.9594,2.9596,2.9624,2.964,2.9682,0,0,0,2.9176,2.924,2.9216,2.929,2.9267,2.9357,2.935,2.9417,2.9461,2.9451,2.9595,2.9597,2.9623,2.9638,2.968,2.9716,2.9731,0,0,2.9253,2.9249,2.9293,2.9274,2.9367,2.9343,2.944,2.9485,2.9494,2.9562,2.9566,2.9627,2.964,2.9682,2.9816,2.9828,0,0,0,2.9316,2.9348,2.9374,2.9417,2.9454,2.9488,2.9519,2.9536,2.9595,2.9528,2.9653,2.9661,2.9686,2.9704,2.9714,2.9736,2.9605,2.9604,2.9604,2.9414,2.9425,2.95,2.9522,2.9564,2.9597,2.9632,2.966,2.9656,2.9686,2.9706,2.9787,2.9807,2.9815,2.9838,2.9726,2.9726,2.9727,2.9727,2.9528,2.9576,2.9573,2.9644,2.9655,2.9714,2.9749,2.9745,2.9802,2.9772,2.9794,2.976,2.9828,2.9848,2.9729,2.9729,2.9728,2.9728,2.9728,2.9594,2.9619,2.9641,2.9706,2.9754,2.9774,2.983,2.9837,2.9843,2.9865,2.9888,2.9888,2.9888,2.9876,2.9876,2.9876,2.9877,2.9877,2.9877,2.9654,2.9678,2.9725,2.9772,2.9802,2.9842,2.9877,2.9906,2.994,2.994,2.9941,2.9935,2.9832,2.9807,2.9881,2.9881,2.988,2.988,2.9879,2.9766,2.9743,2.9815,2.9846,2.9903,2.9951,2.9961,3.0019,3.0044,3.0071,3.0061,2.9985,2.998,2.9972,2.9951,3.0059,3.0059,3.0059,3.0059,2.9823,2.9822,2.9899,2.9947,2.9994,3.0011,3.0092,3.0121,3.0146,3.0162,3.0148,3.012,3.0112,3.0112,3.0102,3.0082,3.022,3.0221,3.0221,2.9892,2.9897,2.9965,2.9993,3.0038,3.0077,3.0154,3.0209,3.0232,3.0227,3.0175,3.0168,3.0124,3.0109,3.0102,3.0085,3.0049,0,0]}]]